GW3217 Weather Reports


time (UTC)temp
C
wind
direction
speed
KPH
gust
KPH
rain 1hr
cm
rain 24hr
cm
rain mn
cm
humidity
%
barometer
mb
20260504130621 12 99 4.8 6.4 0.00 0.00 0.00 50 1014.8
20260504130118 11 315 3.2 3.2 0.00 0.00 0.00 49 1014.9
20260504110509 8 114 0.0 1.6 0.00 0.00 0.00 58 1014.9
20260504100431 7 98 1.6 1.6 0.00 0.00 0.00 60 1014.6
20260504081824 6 67 1.6 3.2 0.00 0.00 0.00 58 1014.3
20260504081320 7 110 0.0 0.0 0.00 0.00 0.00 59 1014.4
20260504080816 7 111 0.0 1.6 0.00 0.00 0.00 58 1014.3
20260504080314 7 109 1.6 1.6 0.00 0.00 0.00 57 1014.2
20260504070235 6 113 3.2 3.2 0.00 0.00 0.00 58 1014.2
20260504060155 6 58 1.6 1.6 0.00 0.00 0.00 58 1014.2
20260504050623 7 114 0.0 0.0 0.00 0.00 0.00 57 1014.0
20260504050121 7 87 1.6 1.6 0.00 0.00 0.00 55 1014.0
20260504045618 7 100 0.0 0.0 0.00 0.00 0.00 55 1013.9
20260504045112 7 99 1.6 1.6 0.00 0.00 0.00 54 1013.7
20260504044611 7 87 1.6 1.6 0.00 0.00 0.00 55 1014.0
20260504044107 7 99 1.6 1.6 0.00 0.00 0.00 56 1014.0
20260504043604 7 98 0.0 0.0 0.00 0.00 0.00 56 1014.0
20260504043101 7 95 0.0 1.6 0.00 0.00 0.00 56 1013.9
20260504042558 7 99 0.0 1.6 0.00 0.00 0.00 55 1013.9
20260504042055 7 98 0.0 1.6 0.00 0.00 0.00 55 1013.7
20260504041550 7 84 1.6 1.6 0.00 0.00 0.00 55 1013.9
20260504041042 7 100 0.0 1.6 0.00 0.00 0.00 54 1013.9
20260504040539 7 101 0.0 1.6 0.00 0.00 0.00 54 1013.8
20260504040036 7 99 0.0 1.6 0.00 0.00 0.00 54 1013.8
20260504035532 7 104 1.6 1.6 0.00 0.00 0.00 53 1013.9
20260504035029 7 89 1.6 1.6 0.00 0.00 0.00 53 1013.9
20260504034527 7 101 1.6 1.6 0.00 0.00 0.00 56 1013.8
20260504034023 7 87 1.6 1.6 0.00 0.00 0.00 54 1013.9
20260504033521 7 85 0.0 1.6 0.00 0.00 0.00 54 1013.9
20260504033019 7 99 0.0 1.6 0.00 0.00 0.00 54 1013.8
20260504032515 7 97 0.0 1.6 0.00 0.00 0.00 53 1014.0
20260504032012 7 79 1.6 1.6 0.00 0.00 0.00 54 1013.8
20260504031509 7 89 1.6 1.6 0.00 0.00 0.00 55 1013.7
20260504031005 7 93 0.0 1.6 0.00 0.00 0.00 54 1013.8
20260504030503 7 93 0.0 1.6 0.00 0.00 0.00 53 1013.8
20260504025958 7 91 0.0 1.6 0.00 0.00 0.00 53 1013.7
20260504025456 7 90 1.6 1.6 0.00 0.00 0.00 54 1013.7
20260504024952 7 92 0.0 1.6 0.00 0.00 0.00 54 1013.8
20260504024449 7 98 0.0 0.0 0.00 0.00 0.00 54 1013.9
20260504023946 7 104 0.0 0.0 0.00 0.00 0.00 54 1013.6
20260504023443 7 113 0.0 1.6 0.00 0.00 0.00 54 1013.9
20260504022938 7 104 0.0 0.0 0.00 0.00 0.00 53 1013.7
20260504022435 7 98 0.0 0.0 0.00 0.00 0.00 54 1013.8
20260504021932 7 111 0.0 0.0 0.00 0.00 0.00 56 1013.8
20260504021429 7 94 0.0 0.0 0.00 0.00 0.00 54 1013.8
20260504020926 7 113 0.0 0.0 0.00 0.00 0.00 56 1013.7
20260504020423 7 110 0.0 0.0 0.00 0.00 0.00 56 1013.8
20260504015920 7 110 0.0 0.0 0.00 0.00 0.00 55 1013.5
20260504015415 7 112 0.0 0.0 0.00 0.00 0.00 53 1013.8
20260504014911 8 112 0.0 0.0 0.00 0.00 0.00 53 1013.6
20260504014407 7 106 1.6 1.6 0.00 0.00 0.00 51 1013.6
20260504013904 7 88 0.0 1.6 0.00 0.00 0.00 51 1013.8
20260504013402 7 99 0.0 1.6 0.00 0.00 0.00 51 1013.5
20260504012858 7 92 0.0 1.6 0.00 0.00 0.00 51 1013.6
20260504012356 7 116 0.0 0.0 0.00 0.00 0.00 51 1013.6
20260504011848 7 113 0.0 0.0 0.00 0.00 0.00 53 1013.7
20260504011345 8 103 0.0 0.0 0.00 0.00 0.00 48 1013.5
20260504010841 8 101 0.0 1.6 0.00 0.00 0.00 48 1013.3
20260504010337 8 96 0.0 1.6 0.00 0.00 0.00 48 1013.5
20260504005833 8 104 0.0 0.0 0.00 0.00 0.00 50 1013.3
20260504005330 8 87 0.0 0.0 0.00 0.00 0.00 48 1013.2
20260504004828 8 110 0.0 1.6 0.00 0.00 0.00 48 1013.2
20260504004325 8 112 0.0 0.0 0.00 0.00 0.00 50 1013.2
20260504003821 9 101 0.0 0.0 0.00 0.00 0.00 47 1013.1
20260504003319 9 101 0.0 1.6 0.00 0.00 0.00 45 1013.2
20260504002815 9 112 0.0 0.0 0.00 0.00 0.00 45 1012.6
20260504002312 10 112 0.0 1.6 0.00 0.00 0.00 45 1012.9
20260504001809 10 114 0.0 0.0 0.00 0.00 0.00 44 1012.7
20260504001301 10 112 0.0 0.0 0.00 0.00 0.00 44 1012.9
20260504000758 10 113 0.0 1.6 0.00 0.00 0.00 43 1012.9
20260504000254 10 115 1.6 3.2 0.00 0.00 0.00 41 1012.6
20260503235753 10 113 3.2 3.2 0.00 0.00 0.00 40 1012.7
20260503235250 11 97 1.6 1.6 0.00 0.00 0.00 41 1012.3
20260503234747 11 198 3.2 4.8 0.00 0.00 0.00 38 1012.4
20260503234245 11 94 1.6 3.2 0.00 0.00 0.00 41 1012.3
20260503233742 11 86 1.6 1.6 0.00 0.00 0.00 39 1012.3
20260503233238 11 101 1.6 1.6 0.00 0.00 0.00 39 1012.0
20260503232735 11 110 0.0 0.0 0.00 0.00 0.00 40 1012.1
20260503232232 11 91 3.2 3.2 0.00 0.00 0.00 37 1012.2
20260503231730 11 187 1.6 1.6 0.00 0.00 0.00 36 1011.9
20260503231227 11 79 3.2 3.2 0.00 0.00 0.00 34 1012.0
20260503230723 11 117 3.2 6.4 0.00 0.00 0.00 35 1011.9
20260503230220 11 278 3.2 3.2 0.00 0.00 0.00 35 1012.0
20260503225718 12 315 6.4 11.3 0.00 0.00 0.00 33 1012.0
20260503225217 12 111 0.0 1.6 0.00 0.00 0.00 35 1011.8
20260503224715 12 104 4.8 4.8 0.00 0.00 0.00 33 1012.0
20260503224212 12 116 1.6 1.6 0.00 0.00 0.00 35 1011.6
20260503223710 13 328 3.2 3.2 0.00 0.00 0.00 31 1011.7
20260503223207 13 154 8.0 14.5 0.00 0.00 0.00 30 1011.3
20260503222703 13 114 0.0 1.6 0.00 0.00 0.00 35 1011.7
20260503222201 13 179 8.0 11.3 0.00 0.00 0.00 30 1011.7
20260503221659 13 10 6.4 9.7 0.00 0.00 0.00 31 1011.5
20260503221156 14 119 3.2 3.2 0.00 0.00 0.00 30 1011.6
20260503220653 13 75 3.2 3.2 0.00 0.00 0.00 31 1011.6
20260503220149 13 348 4.8 6.4 0.00 0.00 0.00 30 1011.7
20260503215647 15 20 3.2 3.2 0.00 0.00 0.00 31 1011.7
20260503215143 13 330 3.2 3.2 0.00 0.00 0.00 32 1011.6
20260503214642 13 111 3.2 4.8 0.00 0.00 0.00 31 1011.6
20260503214137 15 76 4.8 9.7 0.00 0.00 0.00 31 1011.4
20260503213632 14 175 1.6 3.2 0.00 0.00 0.00 36 1011.5
20260503213128 15 119 1.6 1.6 0.00 0.00 0.00 32 1011.5
20260503212626 15 19 0.0 1.6 0.00 0.00 0.00 37 1011.3
20260503212123 14 39 1.6 3.2 0.00 0.00 0.00 34 1011.6
20260503211621 13 271 3.2 9.7 0.00 0.00 0.00 37 1011.5
20260503211116 15 126 0.0 1.6 0.00 0.00 0.00 36 1011.5
20260503210612 15 12 6.4 9.7 0.00 0.00 0.00 31 1011.5
20260503210108 15 53 6.4 6.4 0.00 0.00 0.00 33 1011.5
20260503205604 15 304 6.4 11.3 0.00 0.00 0.00 33 1011.6
20260503205101 15 274 4.8 6.4 0.00 0.00 0.00 32 1011.5
20260503204558 14 110 1.6 3.2 0.00 0.00 0.00 36 1011.7
20260503204056 15 306 3.2 6.4 0.00 0.00 0.00 36 1011.4
20260503203552 15 89 3.2 4.8 0.00 0.00 0.00 36 1011.6
20260503203049 15 99 4.8 6.4 0.00 0.00 0.00 34 1011.6
20260503202547 13 266 8.0 11.3 0.00 0.00 0.00 34 1011.6
20260503202044 13 121 3.2 3.2 0.00 0.00 0.00 38 1011.7
20260503201543 13 292 3.2 3.2 0.00 0.00 0.00 38 1011.8
20260503201039 13 269 8.0 9.7 0.00 0.00 0.00 36 1011.6
20260503200535 13 192 8.0 11.3 0.00 0.00 0.00 38 1011.8
20260503200033 12 87 1.6 3.2 0.00 0.00 0.00 36 1011.8
20260503195530 12 100 6.4 6.4 0.00 0.00 0.00 39 1011.9
20260503195026 13 354 3.2 3.2 0.00 0.00 0.00 40 1011.6
20260503194524 12 8 3.2 4.8 0.00 0.00 0.00 40 1012.0
20260503194023 11 125 1.6 1.6 0.00 0.00 0.00 41 1012.0
20260503193520 11 97 1.6 1.6 0.00 0.00 0.00 44 1012.0
20260503193015 12 125 0.0 1.6 0.00 0.00 0.00 41 1012.1
20260503192512 10 111 1.6 1.6 0.00 0.00 0.00 43 1012.2
20260503192008 11 13 11.3 17.7 0.00 0.00 0.00 39 1012.2
20260503191505 11 177 3.2 4.8 0.00 0.00 0.00 43 1012.5
20260503191001 11 28 3.2 3.2 0.00 0.00 0.00 43 1012.1
20260503190459 11 59 3.2 4.8 0.00 0.00 0.00 42 1011.9
20260503185956 10 128 3.2 4.8 0.00 0.00 0.00 42 1012.0
20260503185452 11 71 4.8 4.8 0.00 0.00 0.00 41 1012.2
20260503184951 12 258 8.0 14.5 0.00 0.00 0.00 41 1012.5
20260503184448 11 55 3.2 3.2 0.00 0.00 0.00 42 1012.3
20260503183944 11 101 1.6 1.6 0.00 0.00 0.00 43 1012.1
20260503183441 11 271 3.2 4.8 0.00 0.00 0.00 41 1012.4
20260503182938 11 356 3.2 3.2 0.00 0.00 0.00 41 1012.3
20260503182437 13 120 1.6 1.6 0.00 0.00 0.00 40 1012.5
20260503181934 12 347 1.6 4.8 0.00 0.00 0.00 40 1012.4
20260503181431 11 141 4.8 9.7 0.00 0.00 0.00 41 1012.4
20260503180927 11 105 3.2 3.2 0.00 0.00 0.00 42 1012.2
20260503180426 10 115 3.2 4.8 0.00 0.00 0.00 44 1012.4
20260503175922 11 124 1.6 3.2 0.00 0.00 0.00 42 1012.4
20260503175420 10 267 14.5 22.5 0.00 0.00 0.00 42 1012.5
20260503174915 10 357 4.8 6.4 0.00 0.00 0.00 43 1012.4
20260503174414 11 353 8.0 12.9 0.00 0.00 0.00 41 1012.4
20260503173908 10 133 4.8 6.4 0.00 0.00 0.00 44 1012.5
20260503173405 9 268 11.3 16.1 0.00 0.00 0.00 44 1012.4
20260503172902 9 78 6.4 9.7 0.00 0.00 0.00 44 1012.7
20260503172359 10 250 6.4 9.7 0.00 0.00 0.00 45 1012.5
20260503171855 10 199 8.0 11.3 0.00 0.00 0.00 41 1012.5
20260503171352 10 313 8.0 12.9 0.00 0.00 0.00 39 1012.5
20260503170850 10 79 4.8 6.4 0.00 0.00 0.00 44 1012.4
20260503170346 10 134 0.0 1.6 0.00 0.00 0.00 42 1012.4
20260503150738 7 56 6.4 9.7 0.00 0.00 0.00 53 1012.8
20260503150234 7 125 0.0 0.0 0.00 0.00 0.00 55 1012.7
20260503140159 7 250 8.0 14.5 0.00 0.00 0.00 55 1012.8